• In Austria
  • List of Countries
  • For 7 days
  • Water Temperature
  • Satellite Maps
  • Weather Map
  • News
  • Weather Widgets
  • user-avatar
    Login

    Hourly Weather Wadzhda

    Today, 19 September, Wednesday

    Time Temperature Precipitation Wind Pressure Humidity
    00:00 +26°C° 0 mm 1 mps 716 mmHg 68%
    01:00 +25°C° 0 mm 1 mps 715 mmHg 69%
    02:00 +25°C° 0 mm 1 mps 715 mmHg 69%
    03:00 +23°C° 0 mm 0 mps 715 mmHg 70%
    04:00 +22°C° 0 mm 0 mps 715 mmHg 71%
    05:00 +22°C° 0 mm 0 mps 715 mmHg 72%
    06:00 +22°C° 0 mm 0 mps 715 mmHg 73%
    07:00 +25°C° 0 mm 1 mps 716 mmHg 65%
    08:00 +26°C° 0 mm 1 mps 716 mmHg 58%
    09:00 +28°C° 0 mm 1 mps 717 mmHg 51%
    10:00 +29°C° 0 mm 2 mps 717 mmHg 47%
    11:00 +30°C° 0 mm 2 mps 717 mmHg 44%
    12:00 +31°C° 0 mm 3 mps 717 mmHg 40%
    13:00 +31°C° 0 mm 3 mps 717 mmHg 40%
    14:00 +31°C° 0 mm 3 mps 716 mmHg 40%
    15:00 +32°C° 0 mm 4 mps 716 mmHg 40%
    16:00 +30°C° 0 mm 4 mps 716 mmHg 44%
    17:00 +29°C° 0 mm 3 mps 716 mmHg 48%
    18:00 +29°C° 0 mm 3 mps 716 mmHg 52%
    19:00 +28°C° 0 mm 3 mps 716 mmHg 55%
    20:00 +27°C° 0 mm 2 mps 717 mmHg 59%
    21:00 +27°C° 0 mm 2 mps 717 mmHg 62%
    22:00 +26°C° 0 mm 1 mps 717 mmHg 63%
    23:00 +26°C° 0 mm 1 mps 717 mmHg 65%

    Tomorrow, 20 September, Thursday

    Time Temperature Precipitation Wind Pressure Humidity
    00:00 +26°C° 0 mm 1 mps 716 mmHg 66%
    01:00 +25°C° 0 mm 1 mps 716 mmHg 68%
    02:00 +25°C° 0 mm 1 mps 716 mmHg 69%
    03:00 +22°C° 0 mm 0 mps 716 mmHg 71%
    04:00 +22°C° 0 mm 0 mps 716 mmHg 72%
    05:00 +22°C° 0 mm 0 mps 716 mmHg 72%
    06:00 +22°C° 0 mm 0 mps 716 mmHg 73%
    07:00 +23°C° 0 mm 0 mps 716 mmHg 65%
    08:00 +24°C° 0 mm 0 mps 716 mmHg 57%
    09:00 +27°C° 0 mm 1 mps 717 mmHg 49%
    10:00 +29°C° 0 mm 1 mps 717 mmHg 45%
    11:00 +30°C° 0 mm 2 mps 717 mmHg 40%
    12:00 +31°C° 0 mm 2 mps 716 mmHg 36%
    13:00 +31°C° 0 mm 3 mps 716 mmHg 37%
    14:00 +32°C° 0 mm 4 mps 716 mmHg 37%
    15:00 +32°C° 0 mm 4 mps 715 mmHg 38%
    16:00 +30°C° 0 mm 4 mps 715 mmHg 42%
    17:00 +29°C° 0 mm 4 mps 715 mmHg 46%
    18:00 +28°C° 0 mm 3 mps 715 mmHg 50%
    19:00 +28°C° 0 mm 3 mps 715 mmHg 53%
    20:00 +27°C° 0 mm 2 mps 715 mmHg 56%
    21:00 +26°C° 0 mm 2 mps 716 mmHg 59%
    22:00 +26°C° 0 mm 1 mps 715 mmHg 61%
    23:00 +26°C° 0 mm 1 mps 715 mmHg 63%

    Day after tomorrow, 21 September, Friday

    Time Temperature Precipitation Wind Pressure Humidity
    00:00 +25°C° 0 mm 1 mps 715 mmHg 65%
    01:00 +25°C° 0 mm 1 mps 715 mmHg 67%
    02:00 +24°C° 0 mm 1 mps 715 mmHg 68%
    03:00 +24°C° 0 mm 1 mps 714 mmHg 70%
    04:00 +22°C° 0 mm 0 mps 714 mmHg 71%
    05:00 +21°C° 0 mm 0 mps 715 mmHg 72%
    06:00 +21°C° 0 mm 0 mps 715 mmHg 72%
    07:00 +22°C° 0 mm 0 mps 715 mmHg 65%
    08:00 +25°C° 0 mm 1 mps 716 mmHg 57%
    09:00 +26°C° 0 mm 1 mps 716 mmHg 49%
    10:00 +28°C° 0 mm 2 mps 716 mmHg 44%
    11:00 +29°C° 0 mm 2 mps 716 mmHg 39%
    12:00 +30°C° 0 mm 3 mps 716 mmHg 34%
    13:00 +30°C° 0 mm 4 mps 716 mmHg 34%
    14:00 +30°C° 0 mm 4 mps 715 mmHg 34%
    15:00 +30°C° 0 mm 4 mps 715 mmHg 33%
    16:00 +29°C° 0 mm 4 mps 715 mmHg 37%
    17:00 +28°C° 0 mm 3 mps 715 mmHg 40%
    18:00 +27°C° 0 mm 3 mps 715 mmHg 43%
    19:00 +27°C° 0 mm 2 mps 716 mmHg 48%
    20:00 +26°C° 0 mm 2 mps 716 mmHg 52%
    21:00 +25°C° 0 mm 1 mps 717 mmHg 56%
    22:00 +25°C° 0 mm 1 mps 716 mmHg 58%
    23:00 +25°C° 0 mm 1 mps 716 mmHg 61%

    22 September, Saturday

    Time Temperature Precipitation Wind Pressure Humidity
    00:00 +22°C° 0 mm 0 mps 716 mmHg 63%
    01:00 +22°C° 0 mm 0 mps 716 mmHg 65%
    02:00 +21°C° 0 mm 0 mps 716 mmHg 67%
    03:00 +21°C° 0 mm 0 mps 716 mmHg 69%
    04:00 +20°C° 0 mm 0 mps 716 mmHg 70%
    05:00 +20°C° 0 mm 0 mps 716 mmHg 71%
    06:00 +20°C° 0 mm 0 mps 716 mmHg 71%
    07:00 +23°C° 0 mm 1 mps 717 mmHg 63%
    08:00 +25°C° 0 mm 1 mps 717 mmHg 55%
    09:00 +26°C° 0 mm 1 mps 718 mmHg 47%
    10:00 +27°C° 0 mm 2 mps 718 mmHg 42%
    11:00 +28°C° 0 mm 2 mps 718 mmHg 37%
    12:00 +30°C° 0 mm 2 mps 718 mmHg 31%
    13:00 +30°C° 0 mm 3 mps 718 mmHg 32%
    14:00 +30°C° 0 mm 3 mps 717 mmHg 32%
    15:00 +32°C° 0 mm 4 mps 717 mmHg 32%
    16:00 +30°C° 0 mm 4 mps 717 mmHg 37%
    17:00 +29°C° 0 mm 4 mps 717 mmHg 42%
    18:00 +28°C° 0 mm 4 mps 717 mmHg 48%
    19:00 +27°C° 0 mm 3 mps 718 mmHg 51%
    20:00 +26°C° 0 mm 2 mps 718 mmHg 54%
    21:00 +26°C° 0 mm 2 mps 718 mmHg 58%
    22:00 +26°C° 0 mm 1 mps 718 mmHg 59%
    23:00 +25°C° 0 mm 1 mps 718 mmHg 59%

    23 September, Sunday

    Time Temperature Precipitation Wind Pressure Humidity
    00:00 +25°C° 0 mm 1 mps 718 mmHg 60%
    01:00 +25°C° 0 mm 1 mps 717 mmHg 60%
    02:00 +24°C° 0 mm 1 mps 717 mmHg 61%
    03:00 +24°C° 0 mm 1 mps 717 mmHg 62%
    04:00 +24°C° 0 mm 1 mps 717 mmHg 63%
    05:00 +23°C° 0 mm 1 mps 717 mmHg 64%
    06:00 +21°C° 0 mm 0 mps 717 mmHg 65%
    07:00 +25°C° 0 mm 1 mps 717 mmHg 57%
    08:00 +26°C° 0 mm 1 mps 718 mmHg 49%
    09:00 +28°C° 0 mm 1 mps 718 mmHg 42%
    10:00 +29°C° 0 mm 1 mps 718 mmHg 38%
    11:00 +30°C° 0 mm 2 mps 718 mmHg 35%
    12:00 +31°C° 0 mm 2 mps 718 mmHg 32%
    13:00 +31°C° 0 mm 2 mps 717 mmHg 32%
    14:00 +31°C° 0 mm 2 mps 717 mmHg 33%
    15:00 +32°C° 0 mm 2 mps 717 mmHg 33%
    16:00 +31°C° 0 mm 2 mps 716 mmHg 37%
    17:00 +30°C° 0 mm 3 mps 716 mmHg 41%
    18:00 +29°C° 0 mm 3 mps 716 mmHg 45%
    19:00 +29°C° 0 mm 2 mps 717 mmHg 48%
    20:00 +28°C° 0 mm 2 mps 717 mmHg 51%
    21:00 +27°C° 0 mm 2 mps 717 mmHg 54%
    22:00 +27°C° 0 mm 1 mps 717 mmHg 56%
    23:00 +27°C° 0 mm 1 mps 717 mmHg 57%

    24 September, Monday

    Time Temperature Precipitation Wind Pressure Humidity
    00:00 +26°C° 0 mm 1 mps 717 mmHg 59%
    01:00 +26°C° 0 mm 1 mps 717 mmHg 60%
    02:00 +25°C° 0 mm 1 mps 716 mmHg 61%
    03:00 +25°C° 0 mm 1 mps 716 mmHg 62%
    04:00 +25°C° 0 mm 1 mps 716 mmHg 63%
    05:00 +22°C° 0 mm 0 mps 716 mmHg 63%
    06:00 +22°C° 0 mm 0 mps 716 mmHg 64%
    07:00 +26°C° 0 mm 1 mps 717 mmHg 57%
    08:00 +27°C° 0 mm 1 mps 717 mmHg 50%
    09:00 +29°C° 0 mm 1 mps 717 mmHg 43%
    10:00 +30°C° 0 mm 1 mps 717 mmHg 40%
    11:00 +31°C° 0 mm 2 mps 717 mmHg 37%
    12:00 +32°C° 0 mm 2 mps 717 mmHg 34%
    13:00 +33°C° 0 mm 3 mps 717 mmHg 34%
    14:00 +33°C° 0 mm 3 mps 716 mmHg 35%
    15:00 +33°C° 0 mm 4 mps 716 mmHg 35%
    16:00 +31°C° 0 mm 3 mps 716 mmHg 39%
    17:00 +30°C° 0 mm 3 mps 716 mmHg 43%
    18:00 +29°C° 0 mm 3 mps 716 mmHg 46%
    19:00 +29°C° 0 mm 3 mps 716 mmHg 49%
    20:00 +28°C° 0 mm 2 mps 716 mmHg 52%
    21:00 +27°C° 0 mm 2 mps 717 mmHg 55%
    22:00 +27°C° 0 mm 1 mps 717 mmHg 57%
    23:00 +27°C° 0 mm 1 mps 716 mmHg 59%
    Show more